Weather Roundup
Issued by NWS Chicago, IL

Home | Current Version | Previous Version | Graphics & Text | Print | Product List | Glossary On
Versions: 1 2 3 4 5 6 7 8 9 10 11 12 13 14 15 16 17 18 19 20 21 22 23 24 25 26 27 28 29 30 31 32 33 34 35 36 37 38 39 40 41 42 43 44 45 46 47 48 49 50
000
NZUS59 KLOT 051912
HRRLOT

CHICAGO AREA WEATHER ROUNDUP
NATIONAL WEATHER SERVICE CHICAGO/ROMEOVILLE IL
200 PM CDT TUE MAY 05 2015

NOTE: "FAIR" INDICATES FEW OR NO CLOUDS BELOW 12,000 FEET WITH NO
SIGNIFICANT WEATHER AND/OR OBSTRUCTIONS TO VISIBILITY.

* THESE STATIONS ARE NOT UNDER NWS QUALITY CONTROL. THEY ALSO MAY NOT
  REPORT WEATHER SUCH AS PRECIPITATION OR FOG.

ILZ005-006-012>014-019>023-052000-
NORTHEAST ILLINOIS

CITY           SKY/WX    TMP DP  RH WIND       PRES   REMARKS
OHARE          CLOUDY    50  49  96 NE10      30.23S FOG
MIDWAY         CLOUDY    56  52  86 N9        30.23R FOG
AURORA         CLOUDY    59  53  80 NE13      30.21S HAZE
LANSING*       CLOUDY    56  51  84 N12       30.22R HAZE
JOLIET*        PTSUNNY   69  63  80 NE6       30.19S
WAUKEGAN       CLOUDY    46  45  96 NE8       30.26S FOG
DUPAGE AIRPORT CLOUDY    54  51  90 NE12      30.22S
WHEELING       FOG       49  48  97 NE8       30.26S VSB 1/2
KANKAKEE*      PTSUNNY   72  67  84 NE6       30.18S
MORRIS*        CLOUDY    68  63  82 NE5       30.17F HAZE
LEWIS AIRPORT* CLOUDY    63  57  82 NE12      30.20F HAZE
NORTHERLY IS     N/A     47  46  97 N12         N/A
$$

WIZ051-052-058>065-066-070>072-052000-
SOUTHEAST WISCONSIN

CITY           SKY/WX    TMP DP  RH WIND       PRES   REMARKS
MILWAUKEE      LGT RAIN  47  43  86 NE12      30.30S
KENOSHA*       CLOUDY    48  46  93 NE14      30.28S
RACINE*        CLOUDY    46  43  89 NE10      30.30F
BURLINGTON     CLOUDY    47  46  95 E12       30.27S
WAUKESHA       LGT RAIN  46  45  93 E9        30.30F
WEST BEND      CLOUDY    52  43  71 E8        30.30S
$$

INZ001>003-010>013-019-020-052000-
NORTHWEST INDIANA

CITY           SKY/WX    TMP DP  RH WIND       PRES   REMARKS
GARY*          FOG       52 N/A N/A N9        30.23  VSB 1/2
MICHIGAN CITY* NOT AVBL
RENSSELAER*    NOT AVBL
VALPARAISO     CLOUDY    69  64  84 NE6       30.20S
$$

LMZ740>746-052000-
SOUTHERN LAKE MICHIGAN

STATION/POSITION TIME  SKY/WX   TEMP WIND        PRES    VSBY
                                AIR  DIR/SP/G
                 (UTC)          (F)  (DEG/KT/KT) (MB)    (MI)
HARRISON CRIB    1800            45  340/ 15/ 17   N/A
BURNHAM HARBOR   1900            47  320/  8/ 13   N/A
CALUMET HARBOR   1800            47  340/ 11/ 13   N/A
BURNS HARBOR     1800            47  360/  2/  4 1023.7F
MICHIGAN CITY    1800            51   20/  9/ 10   N/A
$$

ABBREVIATIONS USED IN REMARKS
   TC - TEMPERATURE IN CELSIUS
  WCI - WIND CHILL INDEX
   HX - HEAT INDEX
  VSB - VISIBILITY
$$



USA.gov is the U.S. government's official web portal to all federal, state and local government web resources and services.